Probability
0 0 0 0 0 0 0 0 0 0 0 0 0 0 0 0 0 0 0 0 0 0 0 0 0 0 0 0 0 0 0 0 0 0 0 0 0 1 4 5 4 6 7
0 0 0 0 0 0 0 0 0 0 0 0 0 0 0 0 0 0 0 0 0 0 0 0 0 0 0 0 0 0 0 0 0 0 0 0 0 1 3 4 4 5 6
0 0 0 0 0 0 0 0 0 0 0 0 0 0 0 0 0 0 0 0 0 0 0 0 0 0 0 0 0 0 0 0 0 0 0 0 0 0 1 2 4 6 5
0 0 0 0 0 0 0 0 0 0 0 0 0 0 0 0 0 0 0 0 0 0 0 0 0 0 0 0 0 0 0 0 0 0 0 0 0 0 0 0 3 6 6
0 0 0 0 0 0 0 0 0 0 0 0 0 0 0 0 0 0 0 0 0 0 0 0 0 0 0 0 0 0 0 0 0 0 0 0 0 0 0 0 2 6 9
0 0 0 0 0 0 0 0 0 0 0 0 0 0 0 0 0 0 0 0 0 0 0 0 0 0 0 0 0 0 0 0 0 0 0 0 0 0 0 0 2 7 10
0 0 0 0 0 0 0 0 0 0 0 0 0 0 0 0 0 0 0 0 0 0 0 0 0 0 0 0 0 0 0 0 0 0 0 0 0 0 0 0 2 7 10
0 0 0 0 0 0 0 0 0 0 0 0 0 0 0 0 0 0 0 0 0 0 0 0 0 0 0 0 0 0 0 0 0 0 0 0 0 0 0 0 1 4 7
0 0 0 0 0 0 0 0 0 0 0 0 0 0 0 0 0 0 0 0 0 0 0 0 0 0 0 0 0 0 0 0 0 0 0 0 0 0 0 0 0 1 2
0 0 0 0 0 0 0 0 0 0 0 0 0 0 0 0 0 0 0 0 0 0 0 0 0 0 0 0 0 0 0 0 0 0 0 0 0 0 0 0 0 0 0
0 0 0 0 0 0 0 0 0 0 0 0 0 0 0 0 0 0 0 0 0 0 0 0 0 0 0 0 0 0 0 0 0 0 0 0 0 0 0 0 0 0 1
0 0 0 0 0 0 0 0 0 0 0 0 0 0 0 0 0 0 0 0 0 0 0 0 0 0 0 0 0 0 0 0 0 0 0 0 0 0 1 1 0 0 1
1 1 0 0 0 0 0 0 0 0 0 0 0 0 0 0 0 0 0 0 0 0 0 0 0 0 0 0 0 0 0 0 0 0 0 0 0 1 2 2 2 2 3
2 1 0 0 0 0 0 0 0 0 0 0 0 0 0 0 0 0 0 0 0 0 0 0 0 0 0 0 0 0 0 0 0 0 0 0 0 1 2 3 5 7 7
1 1 0 0 0 0 0 0 0 0 0 0 0 0 0 0 0 0 0 0 0 0 0 0 0 0 0 0 0 0 0 0 0 0 0 0 0 0 1 3 7 10 9
1 0 0 0 0 0 0 0 0 0 0 0 0 0 0 0 0 0 0 0 0 0 0 0 0 0 0 0 0 0 0 0 0 0 0 0 0 0 0 2 6 8 6
3 1 0 1 0 0 0 0 0 0 0 0 0 0 0 0 0 0 0 0 0 0 0 0 0 0 0 0 0 0 0 0 0 0 0 0 0 0 0 1 3 4 3
3 1 1 2 1 0 0 0 0 0 0 0 0 0 0 0 0 0 0 0 0 0 0 0 0 0 0 0 0 0 0 0 0 0 0 0 0 0 0 0 1 1 1
2 1 1 1 1 0 0 0 0 0 0 0 0 0 0 0 0 0 0 0 0 0 0 0 0 0 0 0 0 0 0 0 0 0 0 0 0 0 0 0 0 0 0
1 0 0 1 0 0 0 0 0 0 0 0 0 0 0 0 0 0 0 0 0 0 0 0 0 0 0 0 0 0 0 0 0 0 0 0 0 0 0 0 0 0 0
0 0 0 0 0 0 0 0 0 0 0 0 0 0 0 0 0 0 0 0 0 0 0 0 0 0 0 0 0 0 0 0 0 0 0 0 0 0 0 0 0 0 0
0 0 0 0 0 0 0 0 0 0 0 0 0 0 0 0 0 0 0 0 0 0 0 0 0 0 0 0 0 0 0 0 0 0 0 0 0 0 0 0 0 0 0
0 0 0 0 0 0 0 0 0 0 0 0 0 0 0 0 0 0 0 0 0 0 0 0 0 0 0 0 0 0 0 0 0 0 0 0 0 0 0 0 0 0 0
0 0 0 0 0 0 0 0 0 0 0 0 0 0 0 0 0 0 0 0 0 0 0 0 0 0 0 0 0 0 0 0 0 0 0 0 0 0 0 0 0 0 0
0 0 0 0 0 0 0 0 0 0 0 0 0 0 0 0 0 0 0 0 0 0 0 0 0 0 0 0 0 0 0 0 0 0 0 0 0 0 0 0 0 0 0
0 0 0 0 0 0 0 0 0 0 0 0 0 0 0 0 0 0 0 0 0 0 0 0 0 0 0 0 0 0 0 0 0 0 0 0 0 0 0 0 0 0 0
Wind_Speed
6 6 6 7 7 7 7 8 8 8 9 9 9 9 10 10 9 9 10 10 10 10 10 10 10 10 9 9 9 9 9 9 11 10 7 5 6 7 7 5 5 6 6
6 6 7 7 7 8 9 8 8 9 9 9 9 10 11 11 10 10 11 11 11 11 11 11 11 10 11 10 10 10 10 9 11 12 9 8 7 7 7 6 5 4 4
6 7 7 8 8 8 9 9 9 9 10 10 10 11 11 11 11 11 11 11 11 12 12 12 12 12 12 11 11 11 10 10 10 11 10 8 7 6 6 6 5 3 3
6 7 7 8 8 8 9 9 9 9 10 10 11 11 11 11 11 11 11 11 12 12 12 12 12 13 13 12 11 12 11 11 11 11 11 9 8 7 6 6 5 4 3
7 8 8 8 8 8 9 9 9 10 11 11 11 11 11 11 10 10 10 11 12 12 12 12 13 12 12 11 11 11 11 10 10 10 10 10 9 7 6 5 5 4 4
7 8 8 8 8 9 9 9 10 10 10 10 11 12 12 10 5 4 10 13 13 13 13 12 12 13 14 16 17 17 16 14 13 11 10 10 9 9 7 6 5 4 4
7 8 8 8 9 9 9 10 10 11 11 11 11 12 12 11 8 9 11 12 14 14 13 12 11 11 10 13 15 19 20 21 19 16 15 13 11 9 9 9 7 6 5
7 8 8 8 9 9 9 10 10 10 10 10 11 12 12 11 8 10 10 13 14 14 14 14 13 13 12 11 12 13 14 15 17 17 16 15 14 11 9 10 8 6 5
8 8 8 8 9 9 10 10 10 10 10 11 11 11 12 12 9 10 11 11 12 14 13 13 13 13 10 8 12 14 14 13 13 14 14 13 12 9 8 8 9 7 6
8 7 8 8 9 10 10 10 10 10 10 11 11 11 12 13 9 9 10 10 12 11 11 11 12 13 9 7 12 13 14 13 13 12 14 16 16 16 14 13 12 9 7
7 7 8 8 9 10 10 10 10 10 11 11 12 12 12 12 11 10 11 10 11 11 10 9 8 9 11 11 12 13 13 12 12 12 12 12 13 13 14 15 14 11 8
7 8 8 8 9 8 9 10 10 11 11 12 11 12 10 9 9 8 10 12 12 11 11 10 7 4 8 10 11 12 12 11 11 11 11 11 11 12 12 13 14 13 10
8 8 8 9 9 9 10 11 10 10 9 9 9 10 9 8 6 10 11 13 13 11 11 10 9 7 8 11 16 16 13 11 11 12 12 11 11 11 10 10 11 11 11
8 8 8 9 10 9 8 9 9 9 9 9 9 10 10 9 8 7 6 7 11 12 11 10 13 15 14 13 10 11 12 11 11 12 12 11 10 10 10 10 10 10 9
9 9 9 10 9 8 9 8 10 9 8 10 11 10 10 11 7 6 8 9 9 7 8 9 10 9 9 9 9 9 9 10 11 11 11 10 10 10 10 10 10 9 10
9 10 9 8 7 8 9 9 10 12 11 13 15 14 12 13 14 13 11 11 12 9 7 10 10 9 10 9 9 9 9 9 10 10 10 10 10 10 10 10 10 10 10
11 10 9 9 8 8 8 9 9 9 13 17 18 17 17 16 15 15 13 12 11 8 8 10 10 10 9 9 8 8 8 8 8 9 10 10 10 10 10 10 10 10 10
12 11 10 9 9 9 8 9 9 9 10 9 10 15 17 17 16 15 12 9 9 9 9 10 10 9 9 8 8 8 8 8 8 9 9 9 10 10 10 10 11 12 11
12 10 9 9 9 9 9 9 9 10 9 9 9 7 10 13 15 14 10 9 10 8 8 9 9 9 9 8 8 7 8 8 8 8 8 9 9 9 10 10 10 12 11
11 12 10 9 9 9 8 9 9 9 9 9 8 8 7 7 8 6 7 8 8 8 8 8 9 9 8 8 7 7 7 8 8 8 8 8 8 9 10 11 10 11 11
10 9 11 10 10 9 8 9 9 8 8 8 8 7 5 8 9 9 7 7 6 7 7 8 8 8 8 7 7 8 9 8 8 8 8 8 9 9 9 9 10 10 10
10 10 9 9 8 8 8 8 8 8 9 9 8 7 6 8 8 7 7 6 6 6 6 7 7 7 6 7 7 7 8 8 8 8 8 9 9 9 10 9 9 9 10
10 10 9 8 8 6 7 9 8 8 8 8 8 7 6 6 7 7 7 7 7 7 6 6 6 7 6 6 7 7 8 8 8 8 8 9 9 9 9 10 11 10 10
10 10 9 8 7 7 7 7 7 7 7 7 7 7 6 6 7 7 7 7 7 6 6 5 6 8 9 7 6 7 7 7 8 8 10 9 9 9 9 9 10 11 11
11 9 8 7 6 6 7 7 6 6 6 6 6 6 6 6 6 6 6 7 8 7 7 7 6 7 8 8 7 5 4 4 5 6 8 8 10 11 10 11 10 10 11
10 8 7 5 5 5 5 5 5 6 6 6 6 6 6 6 6 6 6 6 7 6 6 6 7 7 8 6 5 4 3 3 4 6 7 7 9 9 10 9 12 11 12
Wind_Direction
248 252 263 266 270 269 269 274 278 282 285 281 280 281 280 280 276 270 269 274 267 267 266 263 261 268 274 276 269 264 262 262 268 273 269 265 273 286 296 289 266 238 218
251 255 258 263 268 271 275 279 279 278 279 281 281 280 280 279 276 271 270 271 268 266 265 265 265 262 259 264 270 268 266 267 269 274 277 271 263 269 278 283 272 243 227
252 255 259 264 268 273 280 282 281 279 279 281 281 279 280 280 277 273 270 269 268 267 266 264 264 263 263 262 262 265 266 260 258 265 267 265 263 260 269 268 259 237 224
260 262 264 268 275 280 283 283 280 280 280 281 281 281 280 278 275 272 271 269 268 267 265 264 263 261 259 259 258 257 262 266 263 261 263 261 253 248 252 256 246 223 210
261 265 267 270 275 279 281 281 281 281 281 282 281 280 278 276 271 276 280 277 275 272 267 262 259 258 265 266 269 266 260 256 259 257 256 256 251 243 245 248 251 234 213
258 267 272 275 277 279 282 283 283 282 283 282 280 280 279 278 292 286 277 281 278 274 271 268 264 249 242 238 247 259 267 268 267 269 264 260 261 256 249 252 253 239 222
255 264 270 273 277 282 285 287 287 287 285 282 280 279 278 277 265 250 251 269 273 271 271 270 268 265 249 249 237 233 241 247 254 264 270 271 270 260 260 252 241 243 246
257 264 270 274 278 283 285 286 287 287 286 283 282 280 278 275 255 244 246 260 266 267 266 265 265 267 262 259 261 253 246 239 233 235 246 258 263 273 270 263 264 251 250
258 265 271 276 281 282 284 287 289 287 284 282 280 280 278 277 256 239 242 270 266 266 265 263 263 263 258 240 255 260 259 256 245 240 249 256 274 288 286 272 252 238 230
261 268 273 275 277 280 284 288 288 285 281 282 283 283 281 279 269 236 231 265 270 271 268 262 250 246 259 236 251 256 256 255 256 244 229 236 244 245 236 245 254 246 230
260 266 268 270 271 273 279 282 283 282 284 285 285 282 277 273 269 244 228 256 272 277 277 274 269 208 218 227 241 255 260 269 265 257 251 240 233 230 228 222 228 243 237
254 259 263 266 270 275 276 278 280 281 281 279 279 280 275 268 256 250 223 233 260 275 276 275 277 190 214 228 237 248 251 255 256 254 247 241 236 229 223 222 220 226 236
248 256 262 267 267 269 273 277 277 274 275 282 286 286 287 286 268 227 227 232 236 252 270 282 291 273 254 243 237 238 238 237 239 242 242 238 236 234 231 221 219 220 225
244 256 261 263 264 263 267 271 275 280 282 283 284 287 290 289 285 282 265 242 229 239 256 261 242 242 245 258 253 226 227 233 234 237 239 238 235 231 224 221 215 206 207
239 250 258 262 264 269 267 269 274 278 286 288 292 294 293 292 309 347 312 298 300 312 308 283 272 263 249 241 240 237 234 227 227 234 237 236 230 228 223 216 216 211 206
238 246 252 257 260 264 270 270 242 240 251 246 249 261 278 277 287 291 281 272 269 271 270 265 265 263 260 256 248 241 234 231 229 229 230 231 228 224 221 215 213 211 208
238 245 253 259 261 262 266 274 282 261 233 236 240 243 246 263 274 276 274 270 260 237 241 256 261 262 261 258 253 244 238 232 228 228 229 228 227 225 220 215 212 211 207
240 244 244 253 256 260 265 270 275 284 290 283 249 233 234 242 252 257 258 261 250 219 236 251 260 264 263 261 258 248 238 230 224 225 225 224 224 222 219 215 211 210 206
245 247 242 247 252 256 262 265 269 274 277 283 289 271 227 231 235 240 231 245 264 261 251 252 257 259 261 259 256 250 243 235 226 221 222 219 220 220 220 217 212 205 206
252 247 243 247 251 253 256 262 268 272 276 279 283 288 291 284 279 261 233 247 262 270 268 264 263 260 256 255 252 246 241 236 231 225 221 217 217 220 221 220 215 205 201
267 250 218 234 247 255 260 265 270 275 279 283 286 291 299 292 289 290 288 281 277 277 275 271 268 264 257 250 246 243 241 236 229 223 217 212 212 216 222 220 215 208 201
274 265 249 241 243 248 258 265 270 272 276 281 286 280 239 265 284 291 292 292 288 280 275 273 273 268 262 256 246 242 242 238 230 224 219 212 210 215 214 213 209 205 198
275 268 258 250 250 245 248 258 265 271 276 282 286 291 291 295 301 302 301 299 297 292 286 281 280 275 267 258 248 242 240 237 232 227 221 215 210 211 211 208 204 198 196
285 273 265 258 253 255 257 263 267 272 280 288 292 292 294 299 304 310 309 304 301 299 295 286 284 282 277 268 256 246 242 243 241 235 228 223 214 209 205 204 202 198 193
287 275 264 256 253 257 264 270 276 284 290 295 296 298 302 309 314 320 322 317 314 310 306 299 288 285 284 275 264 257 251 247 252 257 236 227 219 212 205 200 195 194 188
290 278 263 257 255 263 271 279 285 291 295 301 305 307 311 317 320 328 327 323 322 316 309 301 294 295 294 281 277 270 245 236 238 252 253 232 222 214 206 200 194 191 186